Simultaneous Nadir Overpasses (SNOs) Predictions

Prediction of SNOs between METOP-B and NOAA-19 Satellite Orbit:

Table of predicted SNOs for the next 14.0 days since TLE Epoch: 1/18/2020
Index Date (METOP-B) Time (METOP-B) Lat,Lon (METOP-B) SZA (METOP-B ) Date (NOAA-19) Time (NOAA-19) Lat,Lon (NOAA-19) SZA (NOAA-19 ) Distance(km) Time Diff (sec)
1 01/19/2020 07:43:01 -79.75, -95.73 79.45 01/19/2020 07:41:50 -79.75, -95.80 79.46 1.64 71
2 01/19/2020 08:33:41 79.76, 71.70 100.56 01/19/2020 08:32:54 79.73, 71.70 100.53 3.03 47
3 01/19/2020 09:24:23 -79.73,-121.18 79.48 01/19/2020 09:23:50 -79.73,-121.10 79.48 1.61 33
4 01/19/2020 10:15:03 79.74, 46.25 100.53 01/19/2020 10:14:55 79.74, 46.11 100.52 2.83 8
5 01/19/2020 11:05:45 -79.72,-146.62 79.51 01/19/2020 11:05:51 -79.74,-146.69 79.49 2.63 6
6 01/19/2020 11:56:24 79.73, 20.80 100.50 01/19/2020 11:56:54 79.72, 20.81 100.49 1.46 30
7 01/19/2020 12:47:06 -79.71,-172.07 79.54 01/19/2020 12:47:50 -79.72,-171.98 79.52 2.39 44
8 01/19/2020 13:37:46 79.72, -4.65 100.47 01/19/2020 13:38:55 79.73, -4.78 100.48 2.77 69
9 01/30/2020 08:05:47 79.77, 78.78 97.91 01/30/2020 08:04:34 79.76, 78.84 97.89 1.22 73
10 01/30/2020 08:56:29 -79.76,-113.98 82.12 01/30/2020 08:55:32 -79.76,-113.81 82.13 3.26 57
11 01/30/2020 09:47:09 79.76, 53.33 97.87 01/30/2020 09:46:35 79.77, 53.24 97.87 2.58 34
12 01/30/2020 10:37:51 -79.75,-139.42 82.16 01/30/2020 10:37:33 -79.76,-139.41 82.15 1.96 18
13 01/30/2020 11:28:31 79.74, 27.89 97.83 01/30/2020 11:28:35 79.75, 27.94 97.85 1.64 4
14 01/30/2020 12:19:12 -79.77,-164.59 82.15 01/30/2020 12:19:33 -79.75,-164.70 82.17 3.15 21
15 01/30/2020 13:09:52 79.76, 2.72 97.84 01/30/2020 13:10:35 79.74, 2.64 97.82 3.33 43
16 01/30/2020 14:00:34 -79.75, 169.96 82.19 01/30/2020 14:01:33 -79.73, 170.00 82.20 3.03 59




NCC Satellite Simultaneous Nadir Overpasses (SNOs) Prediction Service
